Carolina, PR

6:48 AM AST on January 24, 2017 (GMT -0400)
Luis Munoz Marin International

Weather History for TJSJ - October, 2011

Change the Weather History Date:

Saturday, October 8, 2011

  Actual Average Record
Temperature  
Mean Temperature 82 °F 83 °F  
Max Temperature 87 °F 89 °F 97 °F (1981)
Min Temperature 77 °F 77 °F 70 °F (1955)
Degree Days  
Heating Degree Days 0 0  
Month to date heating degree days 0 0  
Since 1 July heating degree days 0 0  
Cooling Degree Days 17 18  
Month to date cooling degree days 144 144  
Year to date cooling degree days 4347 4556  
Growing Degree Days 32 (Base 50)    
Moisture  
Dew Point 74 °F    
Average Humidity 81    
Maximum Humidity 91    
Minimum Humidity 70    
Precipitation  
Precipitation 0.47 in 0.16 in 1.96 in (1912)
Month to date precipitation 1.29 1.29  
Year to date precipitation 71.00 40.68  
Snow  
Snow 0.00 in 0.00 in - ()
Month to date snowfall 0.0 0.0  
Since 1 July snowfall 0.0 0.0  
Since 1 September snowfall 0.0 0.0  
Snow Depth 0.00 in    
Sea Level Pressure  
Sea Level Pressure 29.93 in    
Wind  
Wind Speed 5 mph (ESE)    
Max Wind Speed 23 mph    
Max Gust Speed 26 mph    
Visibility 9 miles    
Events Rain , Thunderstorm    
T = Trace of Precipitation, MM = Missing Value Source: NWS Daily Summary

Daily Weather History Graph

Daily Weather History Graph

Search for Another Location

Airport or City:

Trip Planner

Search our weather history database for the weather conditions in past years. The results will help you decide how hot, cold, wet, or windy it might be!

Date:

Astronomy

Oct. 08, 2011 Rise Set
Actual Time 6:15 AM AST 6:06 PM AST
Civil Twilight 5:54 AM AST 6:28 PM AST
Nautical Twilight 5:28 AM AST 6:54 PM AST
Astronomical Twilight 5:03 AM AST 7:19 PM AST
Moon 3:57 PM AST (10/8) 3:22 AM AST (10/8)
Length of Visible Light 12h 34m
Length of Day
11h 51m
Waxing Gibbous, 90% of the Moon is Illuminated
Oct 8
Waxing Gibbous
Oct 11
Full
Oct 19
Last Quarter
Oct 26
New
Nov 2
First Quarter

Hourly Weather History & Observations

Time (AST) Temp. Heat Index Dew Point Humidity Pressure Visibility Wind Dir Wind Speed Gust Speed Precip Events Conditions
12:56 AM 79.0 °F - 73.0 °F 82% 29.93 in 10.0 mi Calm Calm - N/A   Partly Cloudy
1:56 AM 79.0 °F - 73.0 °F 82% 29.91 in 10.0 mi Calm Calm - N/A   Scattered Clouds
2:56 AM 79.0 °F - 73.0 °F 82% 29.89 in 10.0 mi Calm Calm - N/A   Scattered Clouds
3:56 AM 78.1 °F - 73.0 °F 84% 29.90 in 10.0 mi Calm Calm - N/A   Partly Cloudy
4:56 AM 78.1 °F - 72.0 °F 81% 29.89 in 10.0 mi Calm Calm - N/A   Partly Cloudy
5:56 AM 77.0 °F - 72.0 °F 84% 29.91 in 10.0 mi Calm Calm - N/A   Scattered Clouds
6:56 AM 78.1 °F - 72.0 °F 81% 29.92 in 10.0 mi SSE 3.5 mph - N/A   Scattered Clouds
7:56 AM 82.0 °F 87.4 °F 73.0 °F 74% 29.94 in 10.0 mi ESE 4.6 mph - N/A   Scattered Clouds
8:56 AM 84.9 °F 93.3 °F 75.0 °F 72% 29.96 in 10.0 mi East 6.9 mph - N/A   Scattered Clouds
9:56 AM 86.0 °F 95.1 °F 75.0 °F 70% 29.97 in 10.0 mi East 11.5 mph - N/A   Scattered Clouds
10:56 AM 84.9 °F 93.3 °F 75.0 °F 72% 29.97 in 10.0 mi East 12.7 mph - N/A   Scattered Clouds
11:56 AM 79.0 °F - 73.9 °F 84% 29.96 in 9.0 mi SSE 11.5 mph 18.4 mph 0.00 in Rain Light Rain
12:08 PM 78.8 °F - 75.2 °F 89% 29.96 in 8.0 mi South 4.6 mph - 0.11 in Rain , Thunderstorm Light Thunderstorms and Rain
12:28 PM 80.6 °F 86.2 °F 75.2 °F 84% 29.96 in 10.0 mi South 3.5 mph - 0.12 in Rain Light Rain
12:56 PM 79.0 °F - 75.0 °F 88% 29.94 in 10.0 mi ESE 9.2 mph - 0.16 in Rain Light Rain
1:56 PM 82.9 °F 90.8 °F 75.9 °F 79% 29.92 in 10.0 mi East 11.5 mph - 0.00 in   Scattered Clouds
2:56 PM 84.9 °F 93.3 °F 75.0 °F 72% 29.89 in 10.0 mi East 11.5 mph - N/A   Scattered Clouds
3:14 PM 82.4 °F 89.5 °F 75.2 °F 79% 29.90 in 1.0 mi ESE 15.0 mph - 0.00 in Rain Light Rain
3:35 PM 78.8 °F - 73.4 °F 83% 29.90 in 3.0 mi East 11.5 mph 21.9 mph 0.19 in Rain Rain
3:56 PM 81.0 °F 86.2 °F 73.9 °F 79% 29.89 in 10.0 mi ENE 5.8 mph - 0.31 in   Scattered Clouds
4:56 PM 79.0 °F - 73.9 °F 84% 29.90 in 8.0 mi SE 5.8 mph - 0.00 in Rain Light Rain
5:56 PM 80.1 °F 85.1 °F 75.0 °F 85% 29.89 in 10.0 mi SE 4.6 mph - 0.00 in   Mostly Cloudy
6:56 PM 80.1 °F 83.8 °F 72.0 °F 76% 29.92 in 10.0 mi Calm Calm - N/A   Partly Cloudy
7:56 PM 80.1 °F 84.2 °F 73.0 °F 79% 29.93 in 10.0 mi ESE 3.5 mph - N/A   Partly Cloudy
8:56 PM 80.1 °F 84.2 °F 73.0 °F 79% 29.94 in 10.0 mi Calm Calm - N/A   Partly Cloudy
9:56 PM 79.0 °F - 73.9 °F 84% 29.94 in 10.0 mi East 4.6 mph - N/A   Partly Cloudy
10:56 PM 79.0 °F - 73.9 °F 84% 29.94 in 10.0 mi Calm Calm - N/A   Partly Cloudy
11:56 PM 79.0 °F - 73.9 °F 84% 29.94 in 10.0 mi Calm Calm - N/A   Scattered Clouds